Find Starlink 3725

NORAD ID: 52123 Int'l Des: 2022-029 Owner: SPXS Country: US Constellation: starlink operational
LEOCIRCULAR

实时位置

正在加载3D地球...

关于 Starlink 3725

正在加载描述...

即将过境

Passes for default location (London). Set your location on the main map for personalized predictions.

高度历史

Loading altitude history...

两行轨道根数

1 52123U 22029AM 26105.83674253 .00000141 00000-0 26945-4 0 9996
2 52123 53.2167 262.1855 0000996 97.2331 262.8775 15.08840743226543
Epoch: Apr 15, 2026 • Age: 10 hours

当前状态

高度 545.7 km
速度 7.59 km/s
星下点 -20.56°S, 154.07°E
发射日期 Mar 19, 2022
运行时间 4 years
类型 internet

技术详情

分类 Payload
质量 297.00 kg
干质量 275.00 kg
总质量 297.00 kg
长度 0.20 m
直径 2.80 m
跨度 9.00 m
形状 Box + pan
制造商 SPXS
平台类型 Starlink
阶段状态 In Orbit
所有者/国家 SPXS/US

Most Searched